K6OUA-11 Weather Reports


time (UTC)temp
C
wind
direction
speed
KPH
gust
KPH
rain 1hr
cm
rain 24hr
cm
rain mn
cm
humidity
%
barometer
mb
20170722005748 29 263 6.4 14.5 0.00 0.00 0.00 47 1006.4
20170722005448 29 258 8.0 8.0 0.00 0.00 0.00 47 1006.4
20170722005146 29 265 3.2 11.3 0.00 0.00 0.00 47 1006.4
20170722004844 29 232 3.2 9.7 0.00 0.00 0.00 46 1006.5
20170722004543 29 254 4.8 9.7 0.00 0.00 0.00 47 1006.5
20170722004244 29 236 3.2 11.3 0.00 0.00 0.00 46 1006.6
20170722003940 29 252 6.4 11.3 0.00 0.00 0.00 46 1006.5
20170722003641 30 263 11.3 11.3 0.00 0.00 0.00 46 1006.6
20170722003338 30 247 6.4 11.3 0.00 0.00 0.00 46 1006.6
20170722002737 30 252 6.4 8.0 0.00 0.00 0.00 46 1006.7
20170722002435 30 245 4.8 11.3 0.00 0.00 0.00 46 1006.6
20170722002135 30 263 11.3 11.3 0.00 0.00 0.00 46 1006.5
20170722001834 30 240 4.8 12.9 0.00 0.00 0.00 45 1006.7
20170722001532 30 249 4.8 11.3 0.00 0.00 0.00 46 1006.7
20170722001231 30 256 6.4 14.5 0.00 0.00 0.00 46 1006.7
20170722000931 30 254 6.4 11.3 0.00 0.00 0.00 46 1006.7
20170722000630 30 240 6.4 8.0 0.00 0.00 0.00 46 1006.8
20170722000327 30 249 3.2 4.8 0.00 0.00 0.00 47 1006.8
20170722000026 30 249 4.8 12.9 0.00 0.00 0.00 47 1006.7
20170721235727 30 243 4.8 4.8 0.00 0.00 0.00 47 1006.7
20170721234824 30 267 16.1 19.3 0.00 0.00 0.00 47 1006.8
20170721234522 30 265 17.7 17.7 0.00 0.00 0.00 47 1006.9
20170721234220 30 258 9.7 14.5 0.00 0.00 0.00 47 1006.9
20170721233919 30 261 8.0 22.5 0.00 0.00 0.00 46 1006.9
20170721233618 30 261 11.3 16.1 0.00 0.00 0.00 47 1007.0
20170721233318 30 256 8.0 16.1 0.00 0.00 0.00 46 1006.8
20170721233015 30 256 6.4 19.3 0.00 0.00 0.00 46 1007.0
20170721232714 30 272 16.1 17.7 0.00 0.00 0.00 46 1006.9
20170721232414 30 243 8.0 14.5 0.00 0.00 0.00 45 1006.9
20170721232113 30 261 3.2 16.1 0.00 0.00 0.00 45 1007.0
20170721231812 30 270 12.9 16.1 0.00 0.00 0.00 44 1006.9
20170721231511 30 247 9.7 17.7 0.00 0.00 0.00 45 1006.9
20170721231209 31 256 9.7 19.3 0.00 0.00 0.00 44 1006.9
20170721230907 31 249 9.7 16.1 0.00 0.00 0.00 44 1006.8
20170721230606 31 285 22.5 24.1 0.00 0.00 0.00 44 1006.8
20170721230306 31 256 8.0 17.7 0.00 0.00 0.00 44 1007.1
20170721230004 31 245 4.8 9.7 0.00 0.00 0.00 44 1007.3
20170721225703 31 258 8.0 16.1 0.00 0.00 0.00 44 1007.1
20170721225402 31 267 12.9 12.9 0.00 0.00 0.00 44 1007.0
20170721225101 31 249 8.0 16.1 0.00 0.00 0.00 44 1007.1
20170721224801 31 283 14.5 14.5 0.00 0.00 0.00 44 1007.0
20170721224500 31 249 9.7 16.1 0.00 0.00 0.00 44 1007.3
20170721223857 31 245 8.0 17.7 0.00 0.00 0.00 44 1007.4
20170721222953 31 247 11.3 16.1 0.00 0.00 0.00 44 1007.4
20170721222652 32 270 11.3 16.1 0.00 0.00 0.00 44 1007.4
20170721222351 32 249 6.4 16.1 0.00 0.00 0.00 44 1007.6
20170721222050 31 261 9.7 16.1 0.00 0.00 0.00 45 1007.7
20170721221749 31 230 3.2 8.0 0.00 0.00 0.00 44 1007.7
20170721221448 31 252 8.0 11.3 0.00 0.00 0.00 45 1007.5
20170721221147 31 252 4.8 11.3 0.00 0.00 0.00 45 1007.7
20170721220845 31 263 8.0 16.1 0.00 0.00 0.00 45 1007.7
20170721220545 31 254 6.4 14.5 0.00 0.00 0.00 45 1007.7
20170721220243 31 263 11.3 11.3 0.00 0.00 0.00 45 1007.7
20170721215942 31 243 6.4 17.7 0.00 0.00 0.00 46 1007.8
20170721215644 31 281 11.3 17.7 0.00 0.00 0.00 46 1007.7
20170721214734 31 249 9.7 14.5 0.00 0.00 0.00 46 1007.8
20170721214432 31 252 11.3 14.5 0.00 0.00 0.00 46 1008.0
20170721214132 31 261 6.4 19.3 0.00 0.00 0.00 46 1007.9
20170721213829 31 243 11.3 14.5 0.00 0.00 0.00 47 1008.0
20170721213528 31 258 8.0 17.7 0.00 0.00 0.00 47 1008.1
20170721213227 31 238 3.2 12.9 0.00 0.00 0.00 47 1008.0
20170721212928 30 245 8.0 16.1 0.00 0.00 0.00 47 1008.0
20170721212625 30 229 1.6 14.5 0.00 0.00 0.00 47 1008.1
20170721212325 30 265 9.7 20.9 0.00 0.00 0.00 47 1008.1
20170721212023 30 265 9.7 20.9 0.00 0.00 0.00 47 1008.3
20170721211722 30 233 6.4 19.3 0.00 0.00 0.00 47 1008.3
20170721211422 30 267 12.9 14.5 0.00 0.00 0.00 47 1008.3
20170721211119 30 285 12.9 14.5 0.00 0.00 0.00 47 1008.4
20170721210859 30 254 6.4 12.9 0.00 0.00 0.00 48 1008.5
20170721210517 30 258 8.0 19.3 0.00 0.00 0.00 47 1008.5
20170721210216 30 265 16.1 25.7 0.00 0.00 0.00 48 1008.4
20170721205915 30 254 6.4 12.9 0.00 0.00 0.00 48 1008.5
20170721205751 30 252 16.1 16.1 0.00 0.00 0.00 49 1008.6
20170721205614 30 242 4.8 16.1 0.00 0.00 0.00 49 1008.6
20170721205314 30 252 16.1 16.1 0.00 0.00 0.00 49 1008.6
20170721205012 30 243 6.4 16.1 0.00 0.00 0.00 49 1008.7
20170721204927 30 256 8.0 20.9 0.00 0.00 0.00 48 1008.6
20170721204712 30 267 11.3 16.1 0.00 0.00 0.00 48 1008.6
20170721204445 30 263 11.3 24.1 0.00 0.00 0.00 49 1008.6
20170721204410 30 254 9.7 20.9 0.00 0.00 0.00 49 1008.6
20170721204108 30 256 8.0 20.9 0.00 0.00 0.00 48 1008.6
20170721203807 30 263 11.3 24.1 0.00 0.00 0.00 49 1008.6
20170721203507 30 252 9.7 24.1 0.00 0.00 0.00 48 1008.7
20170721202906 30 256 9.7 14.5 0.00 0.00 0.00 48 1008.8
20170721202603 30 265 16.1 19.3 0.00 0.00 0.00 48 1008.6
20170721202303 30 261 17.7 22.5 0.00 0.00 0.00 48 1008.6
20170721202001 30 267 9.7 16.1 0.00 0.00 0.00 47 1008.8
20170721201701 30 252 8.0 14.5 0.00 0.00 0.00 47 1008.8
20170721201057 30 252 11.3 16.1 0.00 0.00 0.00 47 1008.8
20170721200758 30 263 12.9 19.3 0.00 0.00 0.00 47 1008.8
20170721200455 30 281 19.3 19.3 0.00 0.00 0.00 47 1008.7
20170721195552 31 249 6.4 20.9 0.00 0.00 0.00 46 1008.9
20170721195251 31 265 14.5 20.9 0.00 0.00 0.00 46 1008.9
20170721194952 31 299 16.1 16.1 0.00 0.00 0.00 46 1008.9
20170721194649 31 235 6.4 14.5 0.00 0.00 0.00 45 1009.0
20170721194347 31 265 11.3 12.9 0.00 0.00 0.00 46 1008.9
20170721194046 31 265 6.4 12.9 0.00 0.00 0.00 45 1009.0
20170721193747 31 261 4.8 9.7 0.00 0.00 0.00 46 1008.9
20170721193143 31 263 4.8 11.3 0.00 0.00 0.00 47 1008.9
20170721192845 31 247 8.0 14.5 0.00 0.00 0.00 46 1009.0
20170721192541 31 256 6.4 17.7 0.00 0.00 0.00 47 1009.1
20170721191940 31 263 8.0 14.5 0.00 0.00 0.00 47 1009.1
20170721191035 30 261 9.7 17.7 0.00 0.00 0.00 47 1009.1
20170721190734 30 263 12.9 14.5 0.00 0.00 0.00 48 1009.0
20170721190433 30 263 9.7 9.7 0.00 0.00 0.00 47 1009.0
20170721190134 30 261 4.8 12.9 0.00 0.00 0.00 47 1009.0
20170721185530 30 267 11.3 11.3 0.00 0.00 0.00 48 1009.2
20170721185426 30 225 0.0 12.9 0.00 0.00 0.00 47 1009.3
20170721185229 30 249 8.0 12.9 0.00 0.00 0.00 48 1009.2
20170721184928 30 225 1.6 9.7 0.00 0.00 0.00 48 1009.3
20170721184627 30 240 1.6 8.0 0.00 0.00 0.00 48 1009.4
20170721184325 29 247 3.2 9.7 0.00 0.00 0.00 49 1009.4
20170721184024 29 263 6.4 12.9 0.00 0.00 0.00 48 1009.3
20170721183723 29 232 1.6 11.3 0.00 0.00 0.00 48 1009.2
20170721183122 29 265 8.0 9.7 0.00 0.00 0.00 48 1009.4
20170721182824 30 225 0.0 12.9 0.00 0.00 0.00 47 1009.3
20170721182822 30 225 0.0 12.9 0.00 0.00 0.00 47 1009.3
20170721182519 30 272 11.3 12.9 0.00 0.00 0.00 47 1009.3
20170721182218 30 292 1.6 9.7 0.00 0.00 0.00 47 1009.4
20170721181917 30 267 6.4 6.4 0.00 0.00 0.00 48 1009.5
20170721181616 30 234 4.8 8.0 0.00 0.00 0.00 48 1009.4
20170721181540 30 261 6.4 8.0 0.00 0.00 0.00 48 1009.4
20170721181317 30 261 6.4 8.0 0.00 0.00 0.00 48 1009.4
20170721181015 30 231 1.6 8.0 0.00 0.00 0.00 49 1009.4
20170721180714 30 270 6.4 6.4 0.00 0.00 0.00 49 1009.3
20170721180412 30 261 4.8 11.3 0.00 0.00 0.00 48 1009.3
20170721180112 30 267 8.0 14.5 0.00 0.00 0.00 49 1009.5
20170721175508 30 240 3.2 6.4 0.00 0.00 0.00 50 1009.5
20170721175208 30 254 3.2 9.7 0.00 0.00 0.00 51 1009.5
20170721174606 29 247 6.4 9.7 0.00 0.00 0.00 52 1009.5
20170721174304 29 258 3.2 8.0 0.00 0.00 0.00 52 1009.4
20170721174004 29 247 4.8 4.8 0.00 0.00 0.00 53 1009.3
20170721173702 28 238 0.0 6.4 0.00 0.00 0.00 54 1009.4
20170721173059 28 238 0.0 4.8 0.00 0.00 0.00 54 1009.4
20170721172801 27 225 1.6 8.0 0.00 0.00 0.00 55 1009.5
20170721172458 27 243 3.2 9.7 0.00 0.00 0.00 55 1009.4
20170721172158 27 258 8.0 9.7 0.00 0.00 0.00 56 1009.4
20170721171856 27 281 4.8 12.9 0.00 0.00 0.00 56 1009.4
20170721171555 27 254 4.8 8.0 0.00 0.00 0.00 57 1009.5
20170721171254 26 254 3.2 8.0 0.00 0.00 0.00 57 1009.2
20170721170651 26 276 9.7 9.7 0.00 0.00 0.00 58 1009.3
20170721170430 26 254 6.4 9.7 0.00 0.00 0.00 59 1009.2
20170721170349 26 254 6.4 9.7 0.00 0.00 0.00 59 1009.2
20170721170049 26 238 6.4 12.9 0.00 0.00 0.00 59 1009.0
20170721164845 25 270 8.0 14.5 0.00 0.00 0.00 59 1009.3
20170721164544 25 270 12.9 14.5 0.00 0.00 0.00 60 1009.4
20170721164242 25 283 12.9 14.5 0.00 0.00 0.00 60 1009.3
20170721163941 25 265 9.7 11.3 0.00 0.00 0.00 61 1009.4
20170721163640 25 238 4.8 11.3 0.00 0.00 0.00 61 1009.3
20170721163339 25 267 4.8 8.0 0.00 0.00 0.00 61 1009.5
20170721163038 25 261 9.7 11.3 0.00 0.00 0.00 62 1009.4
20170721162433 24 252 4.8 9.7 0.00 0.00 0.00 62 1009.3
20170721162129 24 243 4.8 11.3 0.00 0.00 0.00 62 1009.4
20170721161829 24 249 4.8 11.3 0.00 0.00 0.00 63 1009.4
20170721161527 24 267 4.8 11.3 0.00 0.00 0.00 63 1009.4
20170721161227 24 270 6.4 12.9 0.00 0.00 0.00 62 1009.3
20170721160323 25 261 6.4 9.7 0.00 0.00 0.00 63 1009.2
20170721160021 25 249 4.8 9.7 0.00 0.00 0.00 64 1009.2
20170721155315 24 270 3.2 6.4 0.00 0.00 0.00 65 1009.3
20170721155118 24 270 3.2 6.4 0.00 0.00 0.00 65 1009.3
20170721154517 24 240 1.6 6.4 0.00 0.00 0.00 67 1009.3
20170721153915 23 225 1.6 8.0 0.00 0.00 0.00 68 1009.2
20170721153614 23 263 3.2 6.4 0.00 0.00 0.00 68 1009.2
20170721153312 23 265 6.4 6.4 0.00 0.00 0.00 68 1009.1
20170721153011 23 279 4.8 6.4 0.00 0.00 0.00 68 1009.3
20170721152710 23 270 3.2 8.0 0.00 0.00 0.00 69 1009.1
20170721152408 23 254 1.6 3.2 0.00 0.00 0.00 70 1009.2
20170721152107 22 225 1.6 4.8 0.00 0.00 0.00 71 1009.2
20170721151807 22 234 1.6 3.2 0.00 0.00 0.00 71 1009.1
20170721151505 22 225 0.0 4.8 0.00 0.00 0.00 72 1009.2
20170721151205 22 245 1.6 3.2 0.00 0.00 0.00 72 1009.3
20170721150902 21 202 0.0 6.4 0.00 0.00 0.00 73 1009.2
20170721150602 21 258 3.2 6.4 0.00 0.00 0.00 73 1009.3
20170721150001 21 270 1.6 4.8 0.00 0.00 0.00 74 1009.3
20170721145959 21 270 1.6 4.8 0.00 0.00 0.00 74 1009.3
20170721145659 21 254 1.6 4.8 0.00 0.00 0.00 74 1009.0
20170721145358 21 249 3.2 3.2 0.00 0.00 0.00 74 1009.0
20170721145059 21 254 4.8 6.4 0.00 0.00 0.00 75 1009.0
20170721145056 21 254 4.8 6.4 0.00 0.00 0.00 75 1009.0
20170721144756 21 258 1.6 4.8 0.00 0.00 0.00 75 1009.2
20170721144454 20 225 0.0 3.2 0.00 0.00 0.00 76 1009.1
20170721144154 20 247 1.6 4.8 0.00 0.00 0.00 76 1009.0
20170721143944 20 247 3.2 6.4 0.00 0.00 0.00 75 1009.0
20170721143852 20 247 3.2 6.4 0.00 0.00 0.00 75 1009.0
20170721143551 20 270 3.2 6.4 0.00 0.00 0.00 75 1008.9
20170721143251 20 270 1.6 4.8 0.00 0.00 0.00 75 1009.0
20170721142949 20 270 3.2 3.2 0.00 0.00 0.00 76 1008.9
20170721142647 19 270 1.6 1.6 0.00 0.00 0.00 76 1009.0
20170721142346 19 240 0.0 0.0 0.00 0.00 0.00 78 1008.9
20170721142045 18 225 0.0 0.0 0.00 0.00 0.00 78 1009.0
20170721141744 18 225 0.0 0.0 0.00 0.00 0.00 79 1009.2
20170721141442 18 225 0.0 0.0 0.00 0.00 0.00 79 1008.9
20170721141141 17 225 0.0 0.0 0.00 0.00 0.00 79 1008.7
20170721140841 17 270 0.0 1.6 0.00 0.00 0.00 80 1008.9
20170721140540 17 180 0.0 0.0 0.00 0.00 0.00 81 1008.8
20170721140241 16 180 0.0 0.0 0.00 0.00 0.00 82 1008.6
20170721135938 16 180 0.0 0.0 0.00 0.00 0.00 82 1008.7
20170721135636 16 225 0.0 0.0 0.00 0.00 0.00 82 1008.6
20170721135336 16 202 0.0 0.0 0.00 0.00 0.00 83 1008.6
20170721135035 15 225 0.0 0.0 0.00 0.00 0.00 83 1008.8
20170721134733 15 225 0.0 0.0 0.00 0.00 0.00 84 1008.4
20170721134131 15 225 0.0 0.0 0.00 0.00 0.00 83 1008.3
20170721133831 14 225 0.0 1.6 0.00 0.00 0.00 84 1008.4
20170721133529 14 90 1.6 1.6 0.00 0.00 0.00 84 1008.3
20170721133227 14 270 0.0 1.6 0.00 0.00 0.00 84 1008.4
20170721132926 13 225 0.0 0.0 0.00 0.00 0.00 84 1008.3
20170721132626 13 225 0.0 0.0 0.00 0.00 0.00 84 1008.3
20170721132325 13 225 0.0 0.0 0.00 0.00 0.00 83 1008.3
20170721132023 13 135 0.0 0.0 0.00 0.00 0.00 83 1008.2
20170721131725 13 135 0.0 1.6 0.00 0.00 0.00 83 1008.3
20170721131721 13 135 0.0 1.6 0.00 0.00 0.00 83 1008.3
20170721131421 13 225 0.0 1.6 0.00 0.00 0.00 83 1008.1
20170721131120 13 337 1.6 1.6 0.00 0.00 0.00 83 1008.1
20170721130819 13 112 0.0 0.0 0.00 0.00 0.00 83 1008.1
20170721130518 13 112 0.0 0.0 0.00 0.00 0.00 83 1008.2
20170721130216 13 112 0.0 0.0 0.00 0.00 0.00 83 1008.1
20170721125916 13 112 0.0 0.0 0.00 0.00 0.00 83 1008.1
20170721125614 13 112 0.0 1.6 0.00 0.00 0.00 84 1008.1
20170721125502 13 112 0.0 1.6 0.00 0.00 0.00 84 1008.0
20170721125313 13 112 0.0 0.0 0.00 0.00 0.00 84 1008.1
20170721125011 13 112 0.0 1.6 0.00 0.00 0.00 84 1008.0
20170721124712 13 112 1.6 1.6 0.00 0.00 0.00 84 1008.0
20170721124409 13 135 0.0 1.6 0.00 0.00 0.00 84 1008.0
20170721124109 13 112 1.6 1.6 0.00 0.00 0.00 85 1008.0
20170721123808 13 180 0.0 1.6 0.00 0.00 0.00 84 1008.0
20170721123506 13 180 0.0 1.6 0.00 0.00 0.00 85 1008.0
20170721123433 13 267 0.0 1.6 0.00 0.00 0.00 85 1007.9
20170721123206 13 157 0.0 1.6 0.00 0.00 0.00 84 1008.0
20170721123153 13 180 0.0 1.6 0.00 0.00 0.00 85 1007.9
20170721122905 13 45 1.6 1.6 0.00 0.00 0.00 84 1007.9
20170721122603 13 267 0.0 1.6 0.00 0.00 0.00 85 1007.9
20170721122302 13 180 0.0 1.6 0.00 0.00 0.00 85 1007.9
20170721122001 13 180 0.0 1.6 0.00 0.00 0.00 85 1007.8
20170721121930 13 180 0.0 1.6 0.00 0.00 0.00 85 1007.8
20170721121700 13 180 0.0 1.6 0.00 0.00 0.00 85 1007.8
20170721121359 13 180 0.0 1.6 0.00 0.00 0.00 85 1007.8
20170721121057 13 180 0.0 0.0 0.00 0.00 0.00 85 1007.7
20170721120756 13 180 0.0 0.0 0.00 0.00 0.00 85 1007.8
20170721120455 13 225 0.0 0.0 0.00 0.00 0.00 85 1007.8
20170721120154 13 225 0.0 0.0 0.00 0.00 0.00 85 1007.6
20170721115552 13 270 0.0 0.0 0.00 0.00 0.00 85 1007.8
20170721115058 13 225 0.0 0.0 0.00 0.00 0.00 84 1007.7
20170721114950 13 225 0.0 0.0 0.00 0.00 0.00 84 1007.7
20170721114650 13 225 0.0 0.0 0.00 0.00 0.00 84 1007.7
20170721114648 13 225 0.0 0.0 0.00 0.00 0.00 84 1007.7
20170721114349 13 225 0.0 0.0 0.00 0.00 0.00 83 1007.7
20170721113746 13 225 0.0 0.0 0.00 0.00 0.00 84 1007.6
20170721113445 13 225 0.0 0.0 0.00 0.00 0.00 84 1007.6
20170721113144 13 270 0.0 0.0 0.00 0.00 0.00 84 1007.5
20170721112843 13 180 0.0 0.0 0.00 0.00 0.00 84 1007.6
20170721112239 13 180 0.0 0.0 0.00 0.00 0.00 84 1007.7
20170721111940 13 180 0.0 0.0 0.00 0.00 0.00 83 1007.6
20170721111638 13 180 0.0 0.0 0.00 0.00 0.00 84 1007.7
20170721111336 13 180 0.0 0.0 0.00 0.00 0.00 84 1007.5
20170721111035 13 180 0.0 0.0 0.00 0.00 0.00 84 1007.5
20170721110735 13 180 0.0 0.0 0.00 0.00 0.00 84 1007.4
20170721110453 13 270 0.0 0.0 0.00 0.00 0.00 85 1007.5
20170721110132 13 270 0.0 0.0 0.00 0.00 0.00 85 1007.5
20170721105531 13 270 1.6 3.2 0.00 0.00 0.00 85 1007.6
20170721105230 13 270 3.2 3.2 0.00 0.00 0.00 85 1007.6
20170721104929 13 270 1.6 1.6 0.00 0.00 0.00 84 1007.6
20170721104626 13 279 0.0 0.0 0.00 0.00 0.00 84 1007.5
20170721104325 13 270 0.0 0.0 0.00 0.00 0.00 83 1007.6
20170721104119 13 261 1.6 1.6 0.00 0.00 0.00 83 1007.5
20170721104024 13 270 0.0 1.6 0.00 0.00 0.00 84 1007.5
20170721103723 13 261 1.6 1.6 0.00 0.00 0.00 83 1007.5
20170721103423 13 225 0.0 0.0 0.00 0.00 0.00 83 1007.5
20170721102820 13 225 0.0 0.0 0.00 0.00 0.00 83 1007.5
20170721102519 13 225 0.0 0.0 0.00 0.00 0.00 83 1007.3
20170721102219 13 180 0.0 0.0 0.00 0.00 0.00 83 1007.4
20170721101917 13 180 0.0 0.0 0.00 0.00 0.00 83 1007.5
20170721101615 13 180 0.0 1.6 0.00 0.00 0.00 84 1007.6
20170721101013 13 180 0.0 0.0 0.00 0.00 0.00 83 1007.5
20170721100713 13 180 0.0 0.0 0.00 0.00 0.00 83 1007.5
20170721100411 13 180 0.0 0.0 0.00 0.00 0.00 83 1007.5
20170721100110 13 180 0.0 0.0 0.00 0.00 0.00 83 1007.6
20170721095809 13 180 0.0 0.0 0.00 0.00 0.00 83 1007.7
20170721095508 14 270 0.0 0.0 0.00 0.00 0.00 83 1007.8
20170721094906 14 180 0.0 0.0 0.00 0.00 0.00 83 1007.8
20170721094303 14 180 0.0 0.0 0.00 0.00 0.00 83 1007.8
20170721094003 14 270 0.0 0.0 0.00 0.00 0.00 82 1007.8
20170721093400 14 270 1.6 1.6 0.00 0.00 0.00 83 1007.8
20170721093058 14 270 0.0 1.6 0.00 0.00 0.00 82 1007.9
20170721092758 14 270 0.0 1.6 0.00 0.00 0.00 82 1007.8
20170721092156 14 225 0.0 0.0 0.00 0.00 0.00 81 1007.8
20170721091856 14 225 0.0 0.0 0.00 0.00 0.00 82 1007.9
20170721091554 14 225 0.0 0.0 0.00 0.00 0.00 81 1007.8
20170721091255 14 225 0.0 0.0 0.00 0.00 0.00 81 1007.9
20170721091252 14 225 0.0 0.0 0.00 0.00 0.00 81 1007.9
20170721090650 14 225 0.0 0.0 0.00 0.00 0.00 81 1007.8
20170721090349 14 225 0.0 0.0 0.00 0.00 0.00 81 1007.8
20170721085747 15 225 0.0 0.0 0.00 0.00 0.00 80 1007.9
20170721085146 15 225 0.0 0.0 0.00 0.00 0.00 80 1008.0
20170721084844 15 225 0.0 0.0 0.00 0.00 0.00 80 1008.0
20170721084542 15 225 0.0 0.0 0.00 0.00 0.00 80 1008.0
20170721084242 15 225 0.0 0.0 0.00 0.00 0.00 80 1008.0
20170721083940 15 225 0.0 0.0 0.00 0.00 0.00 80 1008.0
20170721083639 15 225 0.0 0.0 0.00 0.00 0.00 79 1008.0
20170721083338 15 225 0.0 0.0 0.00 0.00 0.00 79 1008.0
20170721083036 15 225 0.0 0.0 0.00 0.00 0.00 80 1008.1
20170721082736 15 225 0.0 0.0 0.00 0.00 0.00 79 1008.0
20170721082435 15 225 0.0 0.0 0.00 0.00 0.00 79 1008.0
20170721082322 15 225 0.0 0.0 0.00 0.00 0.00 79 1008.0
20170721082134 15 225 0.0 0.0 0.00 0.00 0.00 79 1007.9
20170721082116 15 225 0.0 0.0 0.00 0.00 0.00 79 1008.0
20170721081833 15 225 0.0 0.0 0.00 0.00 0.00 79 1008.0
20170721081532 15 225 0.0 0.0 0.00 0.00 0.00 79 1008.0
20170721081231 15 225 0.0 0.0 0.00 0.00 0.00 79 1008.1
20170721080929 15 180 0.0 0.0 0.00 0.00 0.00 79 1008.1
20170721080904 15 180 0.0 1.6 0.00 0.00 0.00 79 1008.2
20170721080629 15 180 0.0 0.0 0.00 0.00 0.00 79 1008.1
20170721080327 15 180 0.0 1.6 0.00 0.00 0.00 79 1008.2
20170721075724 15 225 0.0 0.0 0.00 0.00 0.00 79 1008.2
20170721075617 15 225 0.0 0.0 0.00 0.00 0.00 79 1008.2
20170721075345 15 225 0.0 0.0 0.00 0.00 0.00 79 1008.2
20170721075123 15 225 0.0 0.0 0.00 0.00 0.00 79 1008.2
20170721074822 15 225 0.0 0.0 0.00 0.00 0.00 79 1008.2
20170721074728 15 225 0.0 0.0 0.00 0.00 0.00 78 1008.1
20170721074520 15 225 0.0 0.0 0.00 0.00 0.00 78 1008.2
20170721074436 16 225 0.0 0.0 0.00 0.00 0.00 78 1008.3
20170721074219 15 225 0.0 0.0 0.00 0.00 0.00 78 1008.1
20170721073918 16 225 0.0 0.0 0.00 0.00 0.00 78 1008.3
20170721073529 16 225 0.0 0.0 0.00 0.00 0.00 78 1008.2
20170721073316 16 225 0.0 0.0 0.00 0.00 0.00 78 1008.1
20170721073145 16 225 0.0 0.0 0.00 0.00 0.00 77 1008.0
20170721073015 16 225 0.0 0.0 0.00 0.00 0.00 78 1008.2
20170721072714 16 225 0.0 0.0 0.00 0.00 0.00 77 1008.0
20170721072413 16 270 0.0 0.0 0.00 0.00 0.00 78 1008.4
20170721072111 16 270 0.0 0.0 0.00 0.00 0.00 78 1008.2
20170721071509 16 270 0.0 0.0 0.00 0.00 0.00 77 1008.2
20170721071414 16 225 0.0 0.0 0.00 0.00 0.00 76 1008.3
20170721071208 16 225 0.0 0.0 0.00 0.00 0.00 76 1008.2
20170721071058 16 270 0.0 0.0 0.00 0.00 0.00 76 1008.2
20170721070907 16 225 0.0 0.0 0.00 0.00 0.00 76 1008.3
20170721070606 16 270 0.0 0.0 0.00 0.00 0.00 76 1008.2
20170721070304 16 270 0.0 0.0 0.00 0.00 0.00 76 1008.2
20170721070003 16 270 0.0 0.0 0.00 0.00 0.00 76 1008.2
20170721065702 16 270 0.0 0.0 0.00 0.00 0.00 76 1008.2
20170721065101 16 229 0.0 0.0 0.00 0.00 0.00 75 1008.3
20170721064801 16 225 0.0 0.0 0.00 0.00 0.00 75 1008.3
20170721064458 17 225 0.0 0.0 0.00 0.00 0.00 75 1008.4
20170721064157 17 225 0.0 0.0 0.00 0.00 0.00 75 1008.4
20170721063855 17 270 0.0 1.6 0.00 0.00 0.00 76 1008.3
20170721063554 16 270 1.6 3.2 0.00 0.00 0.00 76 1008.5
20170721063314 16 270 3.2 3.2 0.00 0.00 0.00 75 1008.4
20170721062833 16 270 3.2 3.2 0.00 0.00 0.00 75 1008.4
20170721062652 16 270 3.2 3.2 0.00 0.00 0.00 75 1008.4
20170721062601 16 270 0.0 0.0 0.00 0.00 0.00 73 1008.3
20170721062350 16 270 1.6 1.6 0.00 0.00 0.00 74 1008.2
20170721062050 16 270 0.0 0.0 0.00 0.00 0.00 73 1008.3
20170721061145 17 270 0.0 0.0 0.00 0.00 0.00 73 1008.4
20170721060845 17 270 0.0 0.0 0.00 0.00 0.00 73 1008.4
20170721060828 17 225 0.0 0.0 0.00 0.00 0.00 72 1008.2
20170721060738 17 225 0.0 0.0 0.00 0.00 0.00 73 1008.4
20170721060729 17 225 0.0 0.0 0.00 0.00 0.00 72 1008.2
20170721060544 17 225 0.0 0.0 0.00 0.00 0.00 73 1008.4
20170721060243 17 225 0.0 0.0 0.00 0.00 0.00 72 1008.2
20170721055942 17 225 0.0 0.0 0.00 0.00 0.00 72 1008.3
20170721055641 17 225 0.0 0.0 0.00 0.00 0.00 72 1008.4
20170721055500 17 225 0.0 0.0 0.00 0.00 0.00 72 1008.4
20170721055340 17 225 0.0 0.0 0.00 0.00 0.00 72 1008.4
20170721055038 17 225 0.0 0.0 0.00 0.00 0.00 72 1008.5
20170721054737 17 225 0.0 0.0 0.00 0.00 0.00 71 1008.3
20170721054542 17 225 0.0 0.0 0.00 0.00 0.00 72 1008.5
20170721054436 17 225 0.0 0.0 0.00 0.00 0.00 71 1008.5
20170721054135 17 225 0.0 0.0 0.00 0.00 0.00 72 1008.5
20170721053833 17 225 0.0 0.0 0.00 0.00 0.00 72 1008.5
20170721053533 17 225 0.0 1.6 0.00 0.00 0.00 72 1008.4
20170721053232 17 225 0.0 3.2 0.00 0.00 0.00 72 1008.4
20170721052754 17 270 3.2 3.2 0.00 0.00 0.00 72 1008.3
20170721052630 17 270 3.2 3.2 0.00 0.00 0.00 72 1008.3
20170721052331 17 270 1.6 1.6 0.00 0.00 0.00 72 1008.6
20170721052328 17 270 1.6 1.6 0.00 0.00 0.00 72 1008.6
20170721052028 17 270 1.6 1.6 0.00 0.00 0.00 71 1008.6
20170721051727 17 263 1.6 1.6 0.00 0.00 0.00 70 1008.5
20170721051425 17 225 0.0 0.0 0.00 0.00 0.00 70 1008.6
20170721051125 18 270 0.0 0.0 0.00 0.00 0.00 71 1008.6
20170721050824 18 270 0.0 1.6 0.00 0.00 0.00 71 1008.6
20170721050220 18 270 0.0 0.0 0.00 0.00 0.00 70 1008.5
20170721045620 18 315 0.0 1.6 0.00 0.00 0.00 71 1008.6
20170721045317 18 315 1.6 1.6 0.00 0.00 0.00 70 1008.8
20170721045016 18 270 0.0 0.0 0.00 0.00 0.00 68 1008.8
20170721045000 18 225 0.0 0.0 0.00 0.00 0.00 67 1008.8
20170721044715 18 225 0.0 0.0 0.00 0.00 0.00 68 1008.9
20170721044414 18 225 0.0 0.0 0.00 0.00 0.00 67 1008.8
20170721044112 18 225 0.0 0.0 0.00 0.00 0.00 67 1008.8
20170721043812 18 225 0.0 0.0 0.00 0.00 0.00 68 1008.8
20170721043510 18 225 0.0 0.0 0.00 0.00 0.00 68 1008.6
20170721043210 18 225 0.0 1.6 0.00 0.00 0.00 67 1008.6
20170721042908 18 270 1.6 1.6 0.00 0.00 0.00 67 1008.6
20170721042607 19 270 1.6 3.2 0.00 0.00 0.00 66 1008.6
20170721042306 19 270 3.2 4.8 0.00 0.00 0.00 66 1008.7
20170721042005 19 270 3.2 3.2 0.00 0.00 0.00 65 1008.7
20170721041705 19 225 0.0 0.0 0.00 0.00 0.00 65 1008.6
20170721041404 19 225 0.0 0.0 0.00 0.00 0.00 64 1008.6
20170721041109 19 225 0.0 0.0 0.00 0.00 0.00 64 1008.6
20170721040921 19 225 0.0 0.0 0.00 0.00 0.00 64 1008.6
20170721040630 20 225 0.0 1.6 0.00 0.00 0.00 63 1008.6
20170721035857 20 225 0.0 1.6 0.00 0.00 0.00 63 1008.7
20170721035557 20 225 0.0 3.2 0.00 0.00 0.00 63 1008.7
20170721035255 20 243 1.6 4.8 0.00 0.00 0.00 63 1008.7
20170721034955 20 267 1.6 3.2 0.00 0.00 0.00 62 1008.7
20170721034653 20 234 0.0 3.2 0.00 0.00 0.00 61 1008.5
20170721034351 20 249 1.6 3.2 0.00 0.00 0.00 61 1008.5
20170721034051 20 225 0.0 0.0 0.00 0.00 0.00 61 1008.5
20170721033750 20 225 0.0 1.6 0.00 0.00 0.00 60 1008.5
20170721033147 21 225 0.0 0.0 0.00 0.00 0.00 58 1008.6
20170721032847 21 225 0.0 0.0 0.00 0.00 0.00 58 1008.6
20170721032245 21 213 1.6 1.6 0.00 0.00 0.00 56 1008.6
20170721031943 21 213 1.6 1.6 0.00 0.00 0.00 56 1008.5
20170721031643 22 225 0.0 3.2 0.00 0.00 0.00 55 1008.6
20170721031041 22 225 0.0 1.6 0.00 0.00 0.00 54 1008.4
20170721030740 22 225 0.0 1.6 0.00 0.00 0.00 53 1008.4
20170721030438 23 191 1.6 1.6 0.00 0.00 0.00 52 1008.2
20170721030137 23 225 0.0 0.0 0.00 0.00 0.00 52 1008.4
20170721025838 23 225 0.0 1.6 0.00 0.00 0.00 52 1008.5
20170721025534 24 225 0.0 1.6 0.00 0.00 0.00 51 1008.4
20170721025233 24 225 0.0 3.2 0.00 0.00 0.00 50 1008.4
20170721024934 24 180 3.2 3.2 0.00 0.00 0.00 50 1008.3
20170721024630 25 225 1.6 1.6 0.00 0.00 0.00 50 1008.2
20170721024329 25 225 0.0 1.6 0.00 0.00 0.00 50 1008.4
20170721024030 25 254 1.6 4.8 0.00 0.00 0.00 49 1008.5
20170721023727 25 247 1.6 4.8 0.00 0.00 0.00 49 1008.4
20170721023429 25 261 4.8 4.8 0.00 0.00 0.00 49 1008.4
20170721022824 26 243 3.2 6.4 0.00 0.00 0.00 48 1008.2
20170721022524 26 258 4.8 6.4 0.00 0.00 0.00 48 1008.3
20170721022222 26 267 6.4 6.4 0.00 0.00 0.00 47 1008.2
20170721021923 26 243 1.6 6.4 0.00 0.00 0.00 47 1008.5
20170721021619 26 265 4.8 6.4 0.00 0.00 0.00 47 1008.4
20170721021320 26 270 6.4 6.4 0.00 0.00 0.00 46 1008.4
20170721021017 26 227 0.0 4.8 0.00 0.00 0.00 46 1008.4
20170721020718 27 247 1.6 9.7 0.00 0.00 0.00 45 1008.4
20170721015816 27 270 9.7 11.3 0.00 0.00 0.00 44 1008.3
20170721015813 27 270 9.7 11.3 0.00 0.00 0.00 44 1008.3
20170721015512 27 238 1.6 8.0 0.00 0.00 0.00 44 1008.2
20170721015210 27 249 4.8 8.0 0.00 0.00 0.00 43 1008.2
20170721014910 28 267 8.0 8.0 0.00 0.00 0.00 43 1008.1
20170721014612 28 256 6.4 8.0 0.00 0.00 0.00 43 1008.1
20170721014307 28 249 6.4 6.4 0.00 0.00 0.00 42 1008.2
20170721013404 28 240 4.8 6.4 0.00 0.00 0.00 42 1007.9
20170721013103 28 247 3.2 9.7 0.00 0.00 0.00 42 1007.9
20170721012803 28 265 9.7 11.3 0.00 0.00 0.00 42 1007.8
20170721012501 28 265 4.8 11.3 0.00 0.00 0.00 41 1007.8
20170721012201 28 249 1.6 14.5 0.00 0.00 0.00 41 1007.9
20170721011900 28 231 3.2 14.5 0.00 0.00 0.00 40 1008.0
20170721011558 29 256 9.7 12.9 0.00 0.00 0.00 40 1008.0
20170721010956 29 240 4.8 11.3 0.00 0.00 0.00 40 1007.9
20170721010356 30 240 6.4 11.3 0.00 0.00 0.00 40 1007.9
20170721010052 30 256 9.7 12.9 0.00 0.00 0.00 40 1007.9